Simultaneous Nadir Overpasses (SNOs) Predictions

Prediction of SNOs between AQUA and GOES-15 Satellite Orbit:

Table of predicted SNOs for the next 14.0 days since TLE Epoch: 8/21/2021
Index Date Time (AQUA) AQUA Lat,Lon GOES-15 Lat,Lon Distance(km) Time Diff (sec)
1 08/22/2021 21:58:03 0.80,-125.76 0.25,-128.21 279.42 80
2 08/23/2021 10:19:17 0.30,-130.91 -0.27,-128.30 297.05 80
3 08/25/2021 10:07:06 -0.33,-127.95 -0.27,-128.32 41.23 80
4 08/27/2021 09:54:54 -0.95,-124.99 -0.26,-128.33 379.17 80
5 08/27/2021 22:16:18 -0.11,-130.19 0.28,-128.25 220.45 80
6 08/29/2021 22:04:06 0.52,-127.23 0.28,-128.26 116.75 80
7 08/30/2021 10:25:21 0.58,-132.39 -0.29,-128.34 460.75 80
8 08/31/2021 21:51:55 1.16,-124.28 0.28,-128.26 453.18 80
9 09/01/2021 10:13:09 -0.05,-129.43 -0.29,-128.34 124.39 80
10 09/03/2021 10:00:57 -0.69,-126.47 -0.30,-128.33 211.35 80
11 09/03/2021 22:22:21 -0.42,-131.66 0.31,-128.25 387.90 80
